Location: Newark
(23.1300°N, 73.6109°E)
Time: 17:13:49
(UTC+00:00)

NOAA 18 - Pass Details

Date: 10 July 2020
Orbit: 839 x 862 km, 99.0° (Epoch: 05 August)

Event Time Altitude Azimuth Distance (km) Brightness Sun altitude
Exits shadow 14:43:38 - 89° (E) 2,567 7.2 -10.8°
Reaches altitude 10° 14:44:14 10° 83° (E) 2,491 7.2 -10.9°
Maximum altitude 14:45:45 11° 67° (ENE) 2,409 7.2 -11.2°
Drops below altitude 10° 14:47:16 10° 51° (NE) 2,490 7.4 -11.5°
Sets 14:51:38 0° 18° (NNE) 3,424 8.5 -12.4°
